QPF
0.15 0.17 0.16 0.15 0.15 0.12 0.13 0.12 0.13 0.15 0.14 0.10 0.08 0.05 0.03 0.02 0.02 0.02 0.02 0.00 0.00 0.00 0.00 0.00 0.00 0.00 0.01 0.02 0.03 0.04 0.04 0.05 0.06 0.05 0.06 0.08 0.08 0.08
0.08 0.12 0.13 0.14 0.15 0.14 0.13 0.13 0.12 0.14 0.17 0.11 0.10 0.07 0.05 0.02 0.01 0.03 0.02 0.00 0.00 0.00 0.01 0.01 0.01 0.01 0.01 0.01 0.02 0.04 0.05 0.06 0.06 0.06 0.05 0.05 0.05 0.05
0.04 0.06 0.09 0.11 0.13 0.14 0.17 0.17 0.16 0.16 0.17 0.17 0.16 0.14 0.12 0.08 0.04 0.04 0.02 0.01 0.00 0.00 0.00 0.01 0.01 0.02 0.01 0.01 0.01 0.03 0.04 0.04 0.04 0.04 0.04 0.04 0.04 0.04
0.04 0.05 0.06 0.08 0.10 0.12 0.14 0.17 0.19 0.19 0.20 0.21 0.22 0.20 0.19 0.15 0.10 0.06 0.04 0.02 0.00 0.00 0.00 0.00 0.01 0.01 0.01 0.01 0.01 0.01 0.02 0.02 0.02 0.02 0.03 0.03 0.04 0.04
0.03 0.04 0.05 0.06 0.08 0.10 0.12 0.14 0.17 0.18 0.20 0.20 0.20 0.21 0.19 0.17 0.14 0.09 0.06 0.03 0.01 0.00 0.00 0.00 0.00 0.00 0.01 0.01 0.01 0.01 0.01 0.01 0.01 0.01 0.02 0.02 0.04 0.04
0.02 0.03 0.04 0.05 0.06 0.09 0.12 0.13 0.14 0.16 0.18 0.19 0.19 0.17 0.16 0.19 0.15 0.09 0.06 0.03 0.01 0.00 0.00 0.00 0.00 0.00 0.00 0.00 0.00 0.00 0.00 0.01 0.01 0.02 0.02 0.02 0.03 0.04
0.02 0.02 0.03 0.04 0.04 0.06 0.09 0.15 0.15 0.14 0.16 0.18 0.19 0.16 0.13 0.14 0.12 0.09 0.06 0.05 0.03 0.00 0.00 0.00 0.00 0.00 0.00 0.00 0.00 0.01 0.01 0.01 0.01 0.02 0.03 0.03 0.03 0.04
0.03 0.03 0.03 0.03 0.03 0.03 0.05 0.09 0.14 0.15 0.15 0.17 0.20 0.18 0.13 0.12 0.12 0.12 0.09 0.06 0.03 0.01 0.00 0.00 0.00 0.00 0.00 0.00 0.00 0.00 0.01 0.02 0.03 0.03 0.04 0.05 0.05 0.05
0.03 0.04 0.03 0.03 0.03 0.02 0.02 0.04 0.08 0.12 0.14 0.15 0.19 0.20 0.17 0.16 0.15 0.12 0.09 0.07 0.05 0.03 0.01 0.01 0.00 0.00 0.00 0.00 0.00 0.01 0.01 0.01 0.02 0.03 0.04 0.06 0.05 0.05
0.03 0.03 0.03 0.03 0.04 0.04 0.03 0.03 0.04 0.06 0.09 0.11 0.13 0.18 0.20 0.21 0.22 0.19 0.14 0.10 0.08 0.06 0.03 0.01 0.00 0.00 0.01 0.01 0.01 0.01 0.01 0.01 0.01 0.02 0.02 0.02 0.03 0.03
0.02 0.02 0.03 0.04 0.04 0.04 0.03 0.03 0.04 0.04 0.05 0.09 0.11 0.15 0.20 0.22 0.23 0.24 0.20 0.14 0.07 0.05 0.03 0.01 0.00 0.00 0.00 0.01 0.01 0.02 0.02 0.02 0.02 0.02 0.02 0.01 0.01 0.02
0.05 0.03 0.01 0.02 0.03 0.03 0.04 0.04 0.03 0.04 0.04 0.05 0.07 0.08 0.12 0.17 0.18 0.19 0.19 0.15 0.09 0.04 0.02 0.01 0.00 0.00 0.00 0.01 0.01 0.01 0.01 0.02 0.03 0.02 0.02 0.02 0.01 0.02
0.05 0.04 0.03 0.02 0.01 0.02 0.03 0.04 0.03 0.03 0.05 0.05 0.06 0.07 0.09 0.12 0.15 0.17 0.19 0.18 0.13 0.06 0.02 0.01 0.00 0.00 0.00 0.01 0.01 0.01 0.01 0.01 0.01 0.02 0.02 0.02 0.02 0.01
0.07 0.07 0.06 0.03 0.01 0.01 0.02 0.03 0.02 0.01 0.03 0.05 0.06 0.06 0.07 0.08 0.11 0.14 0.17 0.19 0.19 0.13 0.05 0.01 0.01 0.00 0.00 0.00 0.01 0.01 0.01 0.01 0.01 0.01 0.01 0.01 0.01 0.01
0.05 0.05 0.04 0.02 0.01 0.01 0.01 0.01 0.02 0.02 0.02 0.04 0.06 0.06 0.06 0.06 0.08 0.12 0.16 0.19 0.21 0.20 0.11 0.04 0.01 0.01 0.01 0.00 0.00 0.01 0.01 0.01 0.01 0.00 0.00 0.00 0.00 0.00
0.02 0.02 0.02 0.01 0.01 0.01 0.01 0.01 0.01 0.02 0.02 0.03 0.05 0.08 0.09 0.08 0.08 0.09 0.13 0.15 0.17 0.18 0.14 0.08 0.05 0.03 0.01 0.01 0.01 0.01 0.01 0.01 0.01 0.01 0.00 0.00 0.00 0.00
0.04 0.07 0.06 0.05 0.02 0.02 0.02 0.02 0.02 0.03 0.03 0.04 0.06 0.09 0.10 0.09 0.10 0.10 0.10 0.12 0.12 0.12 0.12 0.10 0.08 0.06 0.03 0.02 0.01 0.01 0.01 0.01 0.01 0.01 0.01 0.01 0.00 0.00
0.03 0.08 0.09 0.09 0.08 0.07 0.06 0.05 0.05 0.05 0.04 0.05 0.06 0.09 0.11 0.10 0.11 0.11 0.10 0.10 0.09 0.08 0.09 0.08 0.07 0.06 0.04 0.03 0.02 0.01 0.01 0.01 0.01 0.01 0.00 0.01 0.01 0.00
0.02 0.05 0.07 0.09 0.10 0.10 0.10 0.08 0.07 0.08 0.08 0.08 0.08 0.09 0.11 0.13 0.13 0.13 0.11 0.10 0.09 0.08 0.07 0.06 0.05 0.04 0.03 0.03 0.02 0.01 0.01 0.01 0.01 0.01 0.00 0.01 0.01 0.01
0.02 0.04 0.07 0.09 0.10 0.10 0.09 0.09 0.09 0.12 0.14 0.12 0.10 0.10 0.12 0.13 0.14 0.14 0.12 0.09 0.08 0.08 0.07 0.05 0.04 0.03 0.02 0.02 0.01 0.01 0.01 0.01 0.01 0.01 0.00 0.00 0.00 0.00
0.06 0.07 0.09 0.11 0.12 0.12 0.11 0.10 0.11 0.12 0.15 0.15 0.12 0.11 0.12 0.13 0.13 0.13 0.12 0.10 0.09 0.07 0.06 0.04 0.03 0.03 0.02 0.02 0.02 0.01 0.01 0.01 0.00 0.00 0.00 0.01 0.01 0.00
0.10 0.11 0.10 0.10 0.12 0.13 0.12 0.10 0.12 0.15 0.18 0.17 0.14 0.11 0.12 0.14 0.12 0.11 0.11 0.09 0.08 0.07 0.05 0.04 0.04 0.04 0.03 0.02 0.02 0.01 0.01 0.00 0.00 0.00 0.00 0.00 0.00 0.01
0.12 0.10 0.09 0.07 0.08 0.09 0.09 0.09 0.12 0.18 0.20 0.18 0.16 0.13 0.12 0.15 0.13 0.11 0.10 0.09 0.09 0.08 0.07 0.05 0.05 0.05 0.04 0.03 0.02 0.02 0.01 0.01 0.00 0.00 0.00 0.00 0.00 0.00
MSLP
1009.23 1009.30 1009.38 1009.47 1009.55 1009.59 1009.60 1009.56 1009.49 1009.38 1009.28 1009.19 1009.14 1009.15 1009.24 1009.41 1009.66 1010.00 1010.42 1010.89 1011.41 1011.95 1012.48 1012.98 1013.43 1013.82 1014.14 1014.38 1014.55 1014.66 1014.74 1014.80 1014.87 1014.94 1015.04 1015.17 1015.32 1015.49
1008.98 1009.11 1009.25 1009.41 1009.57 1009.70 1009.79 1009.83 1009.82 1009.76 1009.68 1009.59 1009.52 1009.50 1009.55 1009.68 1009.89 1010.20 1010.59 1011.04 1011.53 1012.04 1012.54 1013.01 1013.42 1013.76 1014.02 1014.21 1014.32 1014.39 1014.42 1014.44 1014.46 1014.51 1014.57 1014.66 1014.78 1014.92
1008.66 1008.84 1009.04 1009.27 1009.50 1009.72 1009.90 1010.02 1010.09 1010.10 1010.06 1010.00 1009.94 1009.91 1009.93 1010.02 1010.20 1010.47 1010.82 1011.24 1011.70 1012.18 1012.65 1013.08 1013.45 1013.74 1013.95 1014.08 1014.14 1014.15 1014.13 1014.11 1014.09 1014.10 1014.13 1014.19 1014.27 1014.38
1008.28 1008.49 1008.75 1009.03 1009.33 1009.63 1009.89 1010.11 1010.26 1010.34 1010.36 1010.34 1010.30 1010.27 1010.29 1010.36 1010.51 1010.75 1011.07 1011.45 1011.88 1012.32 1012.76 1013.15 1013.47 1013.72 1013.89 1013.97 1013.99 1013.96 1013.90 1013.84 1013.78 1013.75 1013.75 1013.78 1013.83 1013.90
1007.85 1008.08 1008.37 1008.69 1009.05 1009.41 1009.76 1010.05 1010.28 1010.44 1010.52 1010.55 1010.54 1010.53 1010.54 1010.60 1010.73 1010.94 1011.23 1011.58 1011.98 1012.40 1012.81 1013.18 1013.48 1013.71 1013.85 1013.91 1013.90 1013.84 1013.75 1013.66 1013.57 1013.51 1013.48 1013.48 1013.51 1013.56
1007.37 1007.61 1007.91 1008.27 1008.66 1009.08 1009.47 1009.83 1010.13 1010.35 1010.49 1010.56 1010.58 1010.58 1010.60 1010.65 1010.77 1010.96 1011.23 1011.57 1011.96 1012.37 1012.77 1013.14 1013.44 1013.67 1013.82 1013.88 1013.87 1013.80 1013.71 1013.61 1013.51 1013.43 1013.38 1013.37 1013.38 1013.42
1006.84 1007.08 1007.40 1007.77 1008.19 1008.63 1009.06 1009.46 1009.80 1010.06 1010.24 1010.34 1010.39 1010.41 1010.43 1010.48 1010.59 1010.78 1011.04 1011.38 1011.77 1012.19 1012.61 1013.00 1013.34 1013.60 1013.78 1013.88 1013.90 1013.87 1013.80 1013.71 1013.62 1013.55 1013.50 1013.49 1013.50 1013.54
1006.28 1006.54 1006.85 1007.23 1007.66 1008.11 1008.56 1008.97 1009.33 1009.61 1009.80 1009.92 1009.98 1010.00 1010.03 1010.08 1010.19 1010.37 1010.64 1010.99 1011.40 1011.85 1012.31 1012.75 1013.15 1013.48 1013.73 1013.90 1013.99 1014.02 1014.00 1013.95 1013.90 1013.86 1013.83 1013.84 1013.87 1013.93
1005.74 1006.01 1006.33 1006.71 1007.13 1007.58 1008.02 1008.42 1008.77 1009.04 1009.23 1009.35 1009.40 1009.42 1009.44 1009.49 1009.60 1009.79 1010.07 1010.43 1010.87 1011.37 1011.89 1012.40 1012.88 1013.30 1013.65 1013.91 1014.10 1014.21 1014.27 1014.30 1014.31 1014.32 1014.34 1014.38 1014.45 1014.54
1005.24 1005.53 1005.87 1006.25 1006.66 1007.09 1007.50 1007.88 1008.20 1008.44 1008.61 1008.71 1008.75 1008.76 1008.76 1008.81 1008.91 1009.10 1009.38 1009.76 1010.24 1010.78 1011.36 1011.95 1012.52 1013.04 1013.50 1013.87 1014.17 1014.39 1014.55 1014.66 1014.75 1014.84 1014.92 1015.02 1015.14 1015.28
1004.83 1005.15 1005.50 1005.88 1006.28 1006.67 1007.05 1007.39 1007.67 1007.88 1008.02 1008.08 1008.10 1008.09 1008.08 1008.11 1008.20 1008.39 1008.67 1009.06 1009.56 1010.13 1010.76 1011.42 1012.07 1012.68 1013.24 1013.73 1014.13 1014.46 1014.73 1014.94 1015.13 1015.29 1015.45 1015.63 1015.81 1016.01
1004.53 1004.87 1005.23 1005.61 1005.98 1006.35 1006.68 1006.98 1007.22 1007.39 1007.49 1007.53 1007.52 1007.49 1007.47 1007.48 1007.56 1007.73 1008.00 1008.39 1008.89 1009.48 1010.13 1010.83 1011.54 1012.22 1012.86 1013.44 1013.94 1014.37 1014.74 1015.05 1015.32 1015.57 1015.81 1016.06 1016.31 1016.57
1004.31 1004.67 1005.02 1005.38 1005.73 1006.06 1006.36 1006.61 1006.82 1006.96 1007.04 1007.06 1007.03 1006.99 1006.95 1006.95 1007.01 1007.16 1007.41 1007.78 1008.26 1008.84 1009.50 1010.21 1010.94 1011.66 1012.35 1012.99 1013.56 1014.07 1014.51 1014.91 1015.26 1015.59 1015.91 1016.22 1016.53 1016.85
1004.14 1004.49 1004.82 1005.15 1005.46 1005.75 1006.02 1006.24 1006.42 1006.54 1006.61 1006.62 1006.60 1006.56 1006.52 1006.51 1006.56 1006.69 1006.91 1007.25 1007.70 1008.25 1008.88 1009.57 1010.29 1011.01 1011.72 1012.39 1013.00 1013.55 1014.06 1014.51 1014.93 1015.32 1015.70 1016.08 1016.45 1016.82
1003.97 1004.27 1004.56 1004.84 1005.11 1005.36 1005.58 1005.78 1005.94 1006.06 1006.13 1006.16 1006.16 1006.14 1006.11 1006.11 1006.16 1006.28 1006.48 1006.78 1007.19 1007.70 1008.28 1008.93 1009.62 1010.32 1011.02 1011.68 1012.30 1012.88 1013.41 1013.90 1014.36 1014.80 1015.23 1015.65 1016.07 1016.49
1003.74 1003.97 1004.19 1004.40 1004.61 1004.81 1005.00 1005.17 1005.33 1005.46 1005.55 1005.61 1005.65 1005.66 1005.67 1005.70 1005.76 1005.88 1006.07 1006.36 1006.73 1007.20 1007.74 1008.34 1008.98 1009.64 1010.30 1010.94 1011.55 1012.12 1012.66 1013.17 1013.66 1014.12 1014.58 1015.04 1015.49 1015.94
1003.43 1003.56 1003.68 1003.81 1003.95 1004.09 1004.25 1004.40 1004.56 1004.70 1004.83 1004.93 1005.01 1005.08 1005.14 1005.21 1005.31 1005.45 1005.66 1005.94 1006.31 1006.75 1007.26 1007.82 1008.42 1009.03 1009.65 1010.25 1010.83 1011.39 1011.92 1012.42 1012.91 1013.39 1013.87 1014.35 1014.83 1015.30
1003.04 1003.05 1003.07 1003.11 1003.17 1003.25 1003.37 1003.51 1003.66 1003.81 1003.97 1004.12 1004.25 1004.37 1004.50 1004.63 1004.79 1004.98 1005.23 1005.54 1005.92 1006.36 1006.86 1007.40 1007.97 1008.55 1009.13 1009.69 1010.24 1010.76 1011.27 1011.76 1012.24 1012.72 1013.21 1013.70 1014.18 1014.67
1002.61 1002.51 1002.43 1002.37 1002.36 1002.38 1002.46 1002.56 1002.71 1002.87 1003.05 1003.23 1003.41 1003.59 1003.78 1003.98 1004.21 1004.48 1004.79 1005.16 1005.58 1006.05 1006.56 1007.10 1007.66 1008.22 1008.77 1009.30 1009.81 1010.30 1010.77 1011.24 1011.70 1012.18 1012.65 1013.14 1013.63 1014.12
1002.19 1002.00 1001.83 1001.70 1001.61 1001.59 1001.61 1001.69 1001.81 1001.97 1002.15 1002.35 1002.57 1002.80 1003.04 1003.32 1003.62 1003.97 1004.36 1004.80 1005.29 1005.81 1006.37 1006.93 1007.49 1008.04 1008.57 1009.07 1009.54 1009.99 1010.43 1010.87 1011.31 1011.75 1012.22 1012.69 1013.18 1013.67
1001.83 1001.57 1001.35 1001.16 1001.03 1000.96 1000.94 1000.98 1001.08 1001.21 1001.38 1001.58 1001.81 1002.07 1002.36 1002.69 1003.07 1003.50 1003.98 1004.50 1005.07 1005.66 1006.26 1006.85 1007.43 1007.98 1008.49 1008.96 1009.40 1009.81 1010.21 1010.60 1011.01 1011.43 1011.87 1012.33 1012.80 1013.29
1001.57 1001.28 1001.03 1000.82 1000.66 1000.55 1000.50 1000.51 1000.56 1000.66 1000.80 1000.98 1001.20 1001.47 1001.79 1002.17 1002.61 1003.10 1003.66 1004.26 1004.90 1005.55 1006.21 1006.84 1007.43 1007.98 1008.47 1008.91 1009.31 1009.68 1010.03 1010.38 1010.75 1011.13 1011.54 1011.98 1012.43 1012.90
1001.39 1001.11 1000.87 1000.66 1000.49 1000.38 1000.30 1000.28 1000.29 1000.35 1000.44 1000.59 1000.79 1001.05 1001.37 1001.77 1002.25 1002.80 1003.41 1004.07 1004.77 1005.48 1006.17 1006.83 1007.43 1007.97 1008.44 1008.85 1009.21 1009.53 1009.83 1010.13 1010.46 1010.80 1011.18 1011.59 1012.02 1012.46
Thickness
5664 5668 5673 5676 5681 5686 5691 5693 5691 5690 5694 5704 5711 5718 5722 5722 5721 5721 5720 5719 5719 5719 5719 5719 5719 5719 5719 5718 5717 5717 5716 5716 5716 5716 5716 5716 5716 5716
5652 5655 5660 5665 5671 5676 5681 5685 5687 5688 5687 5697 5703 5709 5713 5714 5714 5714 5713 5713 5713 5713 5714 5714 5714 5715 5714 5714 5714 5713 5713 5713 5713 5713 5713 5713 5713 5713
5639 5642 5647 5652 5658 5664 5669 5674 5677 5680 5680 5688 5695 5700 5702 5704 5704 5705 5705 5706 5706 5707 5707 5708 5708 5709 5710 5710 5709 5709 5709 5708 5709 5709 5709 5710 5710 5711
5625 5629 5633 5639 5644 5650 5655 5661 5666 5670 5673 5676 5682 5686 5690 5694 5696 5697 5699 5700 5699 5699 5700 5701 5702 5703 5704 5704 5705 5705 5705 5705 5705 5705 5706 5706 5707 5708
5612 5615 5620 5625 5630 5636 5641 5647 5653 5660 5664 5667 5671 5676 5680 5684 5686 5688 5690 5691 5691 5691 5692 5694 5695 5697 5698 5699 5699 5699 5700 5700 5700 5701 5702 5702 5703 5704
5598 5602 5607 5611 5616 5622 5627 5633 5640 5645 5651 5657 5661 5664 5669 5674 5676 5677 5678 5682 5683 5685 5685 5686 5688 5689 5691 5692 5693 5694 5694 5695 5695 5696 5697 5698 5699 5699
5586 5589 5593 5599 5604 5609 5615 5620 5626 5632 5638 5644 5650 5655 5660 5664 5667 5671 5671 5673 5675 5678 5678 5679 5681 5682 5683 5684 5686 5687 5688 5689 5689 5690 5691 5692 5692 5693
5574 5577 5581 5586 5590 5596 5602 5607 5612 5618 5625 5631 5638 5645 5652 5658 5661 5664 5665 5665 5666 5671 5673 5673 5676 5676 5676 5677 5678 5679 5681 5681 5682 5683 5684 5684 5685 5685
5564 5566 5570 5577 5580 5584 5589 5594 5601 5607 5613 5618 5626 5633 5641 5649 5653 5656 5660 5663 5664 5667 5667 5666 5668 5668 5668 5668 5670 5671 5673 5674 5674 5675 5676 5676 5676 5675
5555 5558 5560 5564 5569 5573 5577 5582 5588 5596 5603 5609 5618 5624 5631 5637 5644 5649 5653 5655 5658 5661 5663 5660 5660 5660 5659 5659 5661 5663 5664 5666 5666 5666 5667 5668 5667 5666
5546 5551 5554 5556 5559 5564 5568 5573 5579 5585 5592 5601 5608 5614 5621 5628 5634 5638 5642 5645 5648 5651 5656 5656 5654 5652 5651 5651 5652 5654 5656 5657 5657 5658 5659 5659 5658 5657
5539 5543 5547 5550 5553 5555 5559 5564 5568 5574 5583 5591 5597 5604 5611 5618 5625 5631 5636 5639 5642 5645 5650 5651 5649 5648 5645 5644 5645 5646 5647 5647 5648 5649 5650 5650 5650 5649
5534 5537 5542 5544 5547 5549 5553 5557 5562 5567 5573 5581 5589 5596 5603 5610 5618 5625 5631 5635 5639 5643 5649 5649 5646 5647 5646 5642 5640 5640 5641 5641 5640 5640 5641 5642 5642 5642
5529 5533 5536 5539 5541 5543 5547 5551 5555 5559 5565 5572 5580 5588 5596 5604 5611 5618 5626 5632 5636 5640 5644 5647 5646 5646 5644 5641 5639 5637 5636 5636 5636 5636 5635 5635 5635 5635
5524 5527 5529 5532 5535 5537 5540 5544 5548 5552 5559 5565 5573 5582 5591 5599 5605 5611 5618 5624 5628 5633 5636 5640 5643 5643 5644 5642 5640 5637 5634 5632 5632 5632 5631 5630 5630 5629
5519 5521 5523 5526 5530 5534 5537 5538 5543 5549 5554 5561 5569 5577 5585 5592 5598 5604 5609 5614 5618 5622 5628 5632 5637 5639 5639 5640 5638 5635 5634 5632 5630 5629 5628 5627 5626 5625
5519 5520 5522 5525 5528 5533 5537 5540 5543 5546 5551 5557 5564 5572 5579 5585 5591 5597 5602 5607 5611 5615 5618 5623 5628 5632 5634 5635 5632 5632 5631 5630 5628 5627 5624 5623 5622 5622
5516 5520 5523 5527 5530 5535 5538 5541 5544 5547 5551 5556 5561 5568 5575 5580 5584 5590 5596 5601 5605 5610 5614 5617 5619 5621 5623 5625 5629 5629 5628 5627 5625 5623 5622 5619 5617 5617
5515 5521 5524 5527 5531 5535 5538 5541 5545 5549 5552 5555 5560 5565 5571 5576 5581 5586 5591 5596 5601 5605 5609 5612 5615 5617 5617 5618 5620 5625 5625 5624 5621 5619 5618 5617 5615 5614
5517 5521 5525 5528 5531 5534 5538 5541 5544 5548 5551 5555 5559 5563 5568 5573 5579 5583 5588 5594 5598 5601 5604 5607 5611 5615 5617 5618 5617 5618 5621 5620 5617 5614 5613 5612 5611 5610
5520 5523 5526 5529 5532 5534 5537 5541 5545 5548 5552 5555 5558 5562 5566 5572 5577 5581 5586 5590 5595 5598 5602 5605 5609 5612 5615 5615 5613 5612 5613 5615 5615 5612 5609 5606 5604 5602
5522 5524 5527 5529 5532 5535 5538 5541 5545 5549 5552 5554 5558 5562 5566 5571 5576 5580 5585 5589 5593 5597 5600 5601 5603 5606 5609 5610 5609 5608 5607 5606 5607 5607 5606 5605 5603 5599
5524 5526 5529 5531 5534 5536 5539 5542 5546 5550 5553 5556 5559 5563 5567 5571 5575 5580 5584 5588 5591 5594 5596 5597 5599 5601 5605 5606 5605 5604 5602 5601 5600 5599 5597 5598 5599 5598